User: anonymous
Location: Harwich
(41.6860°N, 70.0760°W)
Time: 10:28:44
(UTC-04:00)
Language:

Cosmos 2173 Rocket - Orbit

View from above orbital plane
View from above orbital plane
View from above satellite
View from above satellite

Ground track
Ground track

The orbit data is extracted from the following two-line orbital elements,

1 21797U 91081B   14274.51528106  .00000173  00000-0  15811-3 0  5380
2 21797 082.9517 077.0826 0037256 342.8311 072.9486 13.77290487148169
Epoch (UTC): 01 October 2014 12:22:00
Eccentricity: 0.0037256
inclination: 82.9517°
perigee height: 946 km
apogee height: 1001 km
right ascension of ascending node: 77.0826°
argument of perigee: 342.8311°
revolutions per day: 13.77290487
mean anomaly at epoch: 72.9486°
orbit number at epoch: 14816

The dashed part of the orbit path shows where the satellite is in the earth's shadow,  

DLR